{"data":{"norad_id":48440,"intl_designator":"2021-040N","name":"STARLINK-2682","alt_names":[],"object_type":"PAYLOAD","status":"ACTIVE","operator":null,"country":"US","launch_date":"2021-05-09","launch_site_code":"AFETR","launch_vehicle":null,"mission":null,"orbit_class":"UNKNOWN","rcs_meters":null,"size_class":null,"mass_kg":null,"dimensions":null,"purposes":["comms"],"wikipedia_slug":null,"has_3d_model":false,"image_url":null,"decayed_at":null,"tle_current":{"epoch":"2026-05-25T03:56:29.598144Z","epoch_age_seconds":60974,"freshness":"FRESH","line1":"1 48440U 21040N   26145.16423146 -.00000526  00000+0 -52077-5 0  9992","line2":"2 48440  53.1584 182.4333 0000993  90.2413 269.8702 15.31687830278397","mean_motion":15.3168783,"eccentricity":9.93e-5,"inclination_deg":53.1584,"raan_deg":182.4333,"arg_perigee_deg":90.2413,"mean_anomaly_deg":269.8702,"bstar":-5.2077e-6,"rev_number":27839,"period_min":94.013934941299,"perigee_km":470.09617651451,"apogee_km":471.45637069065,"semimajor_km":6848.9132736026,"source":"CELESTRAK","updated_at":"2026-05-25T13:38:16.716071Z"}}}